Regional Weather Roundup
Issued by NWS

Home | Current Version | Previous Version | Text Only | Print | Product List | Glossary Off
Versions: 1 2 3 4 5 6 7 8 9 10 11 12 13 14 15 16 17 18 19 20 21 22 23 24 25 26 27 28 29 30 31 32 33 34 35 36 37 38 39 40 41 42 43 44 45 46 47 48 49 50

000
ASUS44 KFWD 250115
RWRTX
NORTH TEXAS HOURLY WEATHER ROUNDUP
NATIONAL WEATHER SERVICE FORT WORTH TX
800 PM CDT TUE APR 24 2018

NOTE: "FAIR" INDICATES FEW OR NO CLOUDS BELOW 12,000 FEET WITH NO
SIGNIFICANT WEATHER AND/OR OBSTRUCTIONS TO VISIBILITY.

TXZ118-119-250200-
DALLAS/FORT WORTH METROPLEX

CITY           SKY/WX    TMP DP  RH WIND       PRES   REMARKS
DFW AIRPORT    MOCLDY    77  48  35 E8        29.98S
DALLAS LOVE    MOCLDY    79  48  33 E7        29.99S
FTW MEACHAM    FAIR      80  52  37 E6        29.99R
DAL-EXECUTIVE  FAIR      77  52  41 E7        29.99S
FTW-ALLIANCE   MOCLDY    76  53  44 NE6       30.00S
FTW-NAS-JRB    FAIR      79  48  33 E5        29.99S
FTW-SPINKS     FAIR      77  55  45 E3        30.01R
ARLINGTON      FAIR      77  54  44 E6        29.99S
MESQUITE       CLEAR     75  48  38 NE3       30.01S
LANCASTER      FAIR      75  52  43 E5        30.01S
$$

TXZ091>094-102>105-117-120-121-131>134-250200-
NORTH CENTRAL TEXAS

CITY           SKY/WX    TMP DP  RH WIND       PRES   REMARKS
SHRMAN/DENISON FAIR      73  50  43 CALM      30.03S
GAINESVILLE    FAIR      72  48  42 CALM      30.05R
BOWIE          FAIR      73  53  48 CALM      30.03R
BRIDGEPORT     FAIR      74  51  43 E5        30.03R
DECATUR        FAIR      73  52  47 CALM      30.02S
DENTON         FAIR      72  54  53 NE8       30.01R
MCKINNEY       FAIR      75  49  39 E3        30.01S
BONHAM         FAIR      70  47  44 CALM      30.02S
GREENVILLE     FAIR      70  55  60 CALM      30.02S
ROCKWALL       FAIR      72  55  54 MISG      30.01F
TERRELL        FAIR      75  51  43 E6        30.01F
WAXAHACHIE     FAIR      74  56  54 CALM      30.01R
CLEBURNE       FAIR      75  55  50 E7        30.01R
GRANBURY       FAIR      78  55  44 E5        29.99S
$$

TXZ083>090-098>101-113>116-127>130-139>142-154-155-250200-
WESTERN NORTH TEXAS

CITY           SKY/WX    TMP DP  RH WIND       PRES   REMARKS
WICHITA FALLS  FAIR      73  55  53 NE8       30.01F
WF-KICKAPOO    FAIR      76  52  43 NE7       30.04S
VERNON         FAIR      78  48  34 E8        30.03S
ABILENE        TSTM      64  59  83 N31G38    30.04R
GRAHAM           N/A     76  53  45 E5        29.98S
BRECKENRIDGE   FAIR      80  50  35 E13       29.98R
CISCO          FAIR      81  54  39 E12G18    29.97R
EASTLAND       FAIR      79  55  42 SE7       29.97R
RANGER         FAIR      78  55  44 SE7       29.97S
MINERAL WELLS  FAIR      75  54  47 E8        29.98R
STEPHENVILLE   FAIR      77  53  42 E9        30.01R
COMANCHE       FAIR      78  56  45 SE9       29.97S
BROWNWOOD      FAIR      81  55  41 E12G20    29.95R
COLEMAN        FAIR      83  50  31 SE16      29.94R
BRADY          FAIR      82  45  26 SE13      29.96R
$$

TXZ143>147-156>162-174-175-250200-
CENTRAL TEXAS

CITY           SKY/WX    TMP DP  RH WIND       PRES   REMARKS
WACO           FAIR      77  56  48 E7        29.98S
WACO-TSTC      CLEAR     75  57  53 E5        29.98S
WACO-MCGREGOR  FAIR      77  57  50 E6        29.98S
HILLSBORO      FAIR      74  59  59 E7        29.99S
CORSICANA      FAIR      73  57  57 SE5       30.01S
MEXIA          FAIR      74  57  55 NE5       29.99S
HEARNE         FAIR      77  60  56 CALM      29.99S
CAMERON        FAIR      78  60  55 E3        29.98R
TEMPLE         FAIR      78  58  49 E6        29.98
KILLEEN        NOT AVBL
KILLEEN-SKYLRK FAIR      79  59  50 SE9       29.98R
FORT HOOD      FAIR      79  58  48 SE10      29.94S
GATESVILLE     FAIR      79  57  47 CALM      29.99S
HAMILTON       FAIR      77  57  49 SE9       29.99S
LAMPASAS       FAIR      79  57  48 SE8G16    29.97R
$$

TXZ095>097-106>112-122>126-135>138-148>153-164>167-250200-
EAST TEXAS

CITY           SKY/WX    TMP DP  RH WIND       PRES   REMARKS
PARIS          FAIR      74  49  41 CALM      30.03R
SULPHUR SPRNGS FAIR      74  49  41 CALM      30.04S
MOUNT PLEASANT FAIR      73  51  45 CALM      30.03R
GILMER         FAIR      69  53  57 CALM      30.02S
MINEOLA        FAIR      66  52  59 CALM      30.02S
TYLER          FAIR      73  47  39 N6        30.01S
LONGVIEW       FAIR      73  50  44 N3        30.01R
MARSHALL       FAIR      67  57  70 CALM      30.03R
ATHENS         FAIR      72  54  53 CALM      30.00S
PALESTINE      FAIR      74  58  57 CALM      30.02R
JACKSONVILLE   FAIR      74  53  47 CALM      30.03S
HENDERSON      FAIR      69  55  60 CALM      30.03R
CENTER         FAIR      67  55  67 MISG      30.02R
NACOGDOCHES      N/A     67  58  72 CALM      30.01S
LUFKIN         FAIR      72  58  61 CALM      30.00R
$$

SUPPLEMENTAL OBSERVATIONS (NWS FORT WORTH AREA)

CITY           SKY/WX    TMP DP  RH WIND       PRES   REMARKS
CADDO GRASSLND   N/A     68  54  60 CALM        N/A
LBJ GRASSLAND    N/A     72  50  46 NE3         N/A
POSSUM KINGDOM   N/A     77  54  44 E8          N/A
GRANBURY         N/A     77  55  47 E7          N/A
COMANCHE         N/A     77  54  44 SE10        N/A
MCGREGOR         N/A     77  57  50 E5          N/A
TEMPLE           N/A     79  57  47 E5          N/A
LAKE LIMESTONE   N/A    N/A N/A N/A NE1         N/A
PALESTINE        N/A     72  54  53 CALM        N/A
$$

SUPPLEMENTAL OBSERVATIONS (NWS NORMAN AREA)

CITY           SKY/WX    TMP DP  RH WIND       PRES   REMARKS
GOODLETT         N/A     70  46  41 N25G33    30.05R
ODELL            N/A     75  49  39 E6        30.05R
CROWELL          N/A     77  51  39 NE16      30.03R
KNOX CITY        N/A     80  47  32 E14G22    29.99R
SEYMOUR          N/A     76  51  40 NE12      30.01S
MILLERS CREEK    N/A     79  54  41 E10         N/A
$$

SUPPLEMENTAL OBSERVATIONS (NWS SAN ANGELO AREA)

CITY           SKY/WX    TMP DP  RH WIND       PRES   REMARKS
WEINERT          N/A     79  51  38 E14       29.99R
HASKELL          N/A     77  48  35 E10G17    30.00R
THROCKMORTON     N/A     76  55  47 E8        30.01R
STAMFORD         N/A     67  60  76 SW22      30.04R
CLYDE            N/A     73  53  50 NW26G33   30.07R
HAMBY            N/A     64  54  68 NW25G38     N/A
IVIE RESERVOIR   N/A     86  45  23 SE17        N/A
COLORADO BEND    N/A     81  52  36 SE8         N/A
$$

SUPPLEMENTAL OBSERVATIONS (NWS SHREVEPORT AREA)

CITY           SKY/WX    TMP DP  RH WIND       PRES   REMARKS
TEXARKANA        N/A     66  55  68 CALM        N/A
LINDEN           N/A     70  52  52 CALM        N/A
CADDO LAKE       N/A     63  55  77 CALM        N/A
LUFKIN           N/A     72  63  73 MISG        N/A
N SABINE NF      N/A     66  57  72 MISG        N/A
$$

SUPPLEMENTAL OBSERVATIONS ARE A COLLECTION OF AUTOMATED INSTRUMENTS
THAT ARE MAINTAINED BY A VARIETY OF FEDERAL AND STATE AGENCIES.
CERTAIN ELEMENTS...SUCH AS HUMIDITY VALUES AND SUSTAINED WIND
SPEEDS...MAY BE APPROXIMATED.





USA.gov is the U.S. government's official web portal to all federal, state and local government web resources and services.